EW2244 Weather Reports


Display with metric or nautical units.
time (UTC)temp
F
wind
direction
speed
MPH
gust
MPH
rain 1hr
in
rain 24hr
in
rain mn
in
humidity
%
barometer
mb
20260901053130 68 90 0.0 2.0 0.00 0.00 0.00 61 1018.2
20260901052130 68 90 0.0 4.0 0.00 0.00 0.00 58 1018.0
20260901051136 68 98 0.0 0.0 0.00 0.00 0.00 59 1017.9
20260901050136 68 98 0.0 1.0 0.00 0.00 0.00 57 1017.9
20260901045137 69 98 0.0 1.0 0.00 0.00 0.00 55 1017.6
20260901044138 71 98 0.0 3.0 0.00 0.00 0.00 52 1017.5
20260901043143 71 47 0.0 8.0 0.00 0.00 0.00 49 1017.3
20260901042145 71 134 1.0 7.0 0.00 0.00 0.00 48 1017.2
20260901041128 71 180 1.0 5.0 0.00 0.00 0.00 48 1017.0
20260901040127 71 17 2.0 9.0 0.00 0.00 0.00 48 1017.0
20260901035133 71 57 1.0 8.0 0.00 0.00 0.00 49 1016.8
20260901034135 71 53 1.0 3.0 0.00 0.00 0.00 49 1016.8
20260901033137 71 184 0.0 4.0 0.00 0.00 0.00 51 1016.8
20260901032139 71 360 1.0 4.0 0.00 0.00 0.00 52 1016.7
20260901031142 71 190 1.0 5.0 0.00 0.00 0.00 52 1016.7
20260901030148 72 340 2.0 6.0 0.00 0.00 0.00 50 1016.7
20260901025149 72 5 1.0 5.0 0.00 0.00 0.00 49 1016.7
20260901024131 72 285 1.0 4.0 0.00 0.00 0.00 48 1016.7
20260901023133 72 100 1.0 5.0 0.00 0.00 0.00 48 1016.7
20260901022140 72 171 1.0 3.0 0.00 0.00 0.00 48 1016.8
20260901021142 72 111 1.0 5.0 0.00 0.00 0.00 49 1016.7
20260901020205 72 62 1.0 7.0 0.00 0.00 0.00 49 1016.7
20260901015205 72 5 1.0 4.0 0.00 0.00 0.00 50 1016.7
20260901014145 72 10 0.0 6.0 0.00 0.00 0.00 50 1016.7
20260901013128 71 10 1.0 5.0 0.00 0.00 0.00 52 1016.8
20260901012132 71 59 0.0 3.0 0.00 0.00 0.00 53 1016.8
20260901011135 71 57 0.0 2.0 0.00 0.00 0.00 55 1016.7
20260901010140 72 55 0.0 2.0 0.00 0.00 0.00 55 1016.7
20260901005128 72 185 0.0 3.0 0.00 0.00 0.00 50 1016.7
20260901004152 72 11 1.0 4.0 0.00 0.00 0.00 49 1016.6
20260901003134 73 32 0.0 3.0 0.00 0.00 0.00 51 1016.6
20260901002158 74 313 2.0 7.0 0.00 0.00 0.00 46 1016.5
20260901001141 74 295 2.0 10.0 0.00 0.00 0.00 45 1016.6
20260901000130 73 143 2.0 8.0 0.00 0.00 0.00 49 1016.5
20260831235133 73 346 2.0 8.0 0.00 0.00 0.00 48 1016.6
20260831234137 73 33 1.0 6.0 0.00 0.00 0.00 51 1016.6
20260831233141 73 24 0.0 2.0 0.00 0.00 0.00 55 1016.6
20260831232128 73 12 0.0 9.0 0.00 0.00 0.00 55 1016.5
20260831231132 74 348 0.0 4.0 0.00 0.00 0.00 54 1016.4
20260831230136 74 178 0.0 4.0 0.00 0.00 0.00 53 1016.3
20260831225139 74 93 1.0 2.0 0.00 0.00 0.00 54 1016.4
20260831224205 74 17 1.0 4.0 0.00 0.00 0.00 56 1016.4
20260831223145 74 5 1.0 5.0 0.00 0.00 0.00 60 1016.4
20260831222148 74 117 0.0 4.0 0.00 0.00 0.00 59 1016.3
20260831221131 74 90 1.0 4.0 0.00 0.00 0.00 61 1016.3
20260831220133 74 24 1.0 7.0 0.00 0.00 0.00 63 1016.2
20260831215125 73 275 1.0 4.0 0.00 0.00 0.00 68 1016.2
20260831214130 74 263 1.0 4.0 0.00 0.00 0.00 70 1016.2
20260831213137 73 49 1.0 3.0 0.00 0.00 0.00 69 1016.3
20260831212125 74 259 0.0 3.0 0.00 0.00 0.00 72 1016.2
20260831211132 74 327 1.0 4.0 0.00 0.00 0.00 72 1016.3
20260831210158 74 5 0.0 6.0 0.00 0.00 0.00 71 1016.3
20260831205141 74 232 1.0 3.0 0.00 0.00 0.00 71 1016.2
20260831204127 74 300 1.0 4.0 0.00 0.00 0.00 71 1016.1
20260831203137 75 45 1.0 5.0 0.00 0.00 0.00 70 1016.0
20260831202145 74 9 1.0 4.0 0.00 0.00 0.00 71 1015.9
20260831201128 73 327 0.0 2.0 0.00 0.00 0.00 74 1015.9
20260831200135 74 241 1.0 3.0 0.00 0.00 0.00 74 1015.8
20260831195123 75 244 0.0 1.0 0.00 0.00 0.00 71 1015.7
20260831194128 74 196 0.0 3.0 0.00 0.00 0.00 71 1015.8
20260831193130 74 167 0.0 2.0 0.00 0.00 0.00 73 1015.6
20260831192135 75 167 1.0 3.0 0.00 0.00 0.00 72 1015.5
20260831191125 76 146 1.0 2.0 0.00 0.00 0.00 68 1015.4
20260831190127 77 150 1.0 3.0 0.00 0.00 0.00 67 1015.3
20260831185133 77 109 1.0 3.0 0.00 0.00 0.00 67 1015.2
20260831184136 76 132 1.0 3.0 0.00 0.00 0.00 67 1015.0
20260831183145 76 168 0.0 1.0 0.00 0.00 0.00 70 1014.9
20260831182132 76 168 0.0 3.0 0.00 0.00 0.00 72 1014.8
20260831181139 76 168 0.0 1.0 0.00 0.00 0.00 71 1014.7
20260831180126 78 168 0.0 1.0 0.00 0.00 0.00 71 1014.7
20260831175135 78 168 0.0 1.0 0.00 0.00 0.00 66 1014.6
20260831174123 79 168 1.0 2.0 0.00 0.00 0.00 67 1014.6
20260831173130 80 168 0.0 1.0 0.00 0.00 0.00 62 1014.6
20260831172138 81 168 0.0 1.0 0.00 0.00 0.00 63 1014.7
20260831171128 82 168 1.0 2.0 0.00 0.00 0.00 62 1014.5
20260831170134 84 168 0.0 1.0 0.00 0.00 0.00 57 1014.6
20260831165201 85 168 0.0 1.0 0.00 0.00 0.00 54 1014.6
20260831164127 85 168 0.0 1.0 0.00 0.00 0.00 52 1014.7
20260831163159 86 168 0.0 1.0 0.00 0.00 0.00 49 1014.6
20260831162126 86 168 0.0 1.0 0.00 0.00 0.00 48 1014.6
20260831161133 87 168 0.0 1.0 0.00 0.00 0.00 47 1014.7
20260831160139 87 168 0.0 2.0 0.00 0.00 0.00 44 1014.7
20260831155129 87 169 0.0 3.0 0.00 0.00 0.00 44 1014.8
20260831154136 87 138 0.0 3.0 0.00 0.00 0.00 48 1014.9
20260831153140 87 62 0.0 4.0 0.00 0.00 0.00 45 1014.8
20260831152127 86 139 2.0 6.0 0.00 0.00 0.00 46 1014.9
20260831151137 86 221 2.0 4.0 0.00 0.00 0.00 47 1015.0
20260831150124 86 192 0.0 4.0 0.00 0.00 0.00 47 1015.0
20260831145130 86 140 1.0 4.0 0.00 0.00 0.00 48 1014.9
20260831144137 86 40 1.0 4.0 0.00 0.00 0.00 51 1015.0
20260831143149 86 78 2.0 4.0 0.00 0.00 0.00 49 1015.1
20260831142133 87 130 1.0 2.0 0.00 0.00 0.00 51 1015.1
20260831141138 86 88 0.0 3.0 0.00 0.00 0.00 53 1015.0
20260831140124 87 107 2.0 6.0 0.00 0.00 0.00 51 1015.0
20260831135135 87 63 1.0 4.0 0.00 0.00 0.00 50 1015.1
20260831134139 86 65 2.0 5.0 0.00 0.00 0.00 50 1015.1
20260831133203 86 196 1.0 4.0 0.00 0.00 0.00 49 1015.2
20260831132145 87 94 2.0 3.0 0.00 0.00 0.00 48 1015.3
20260831131130 86 67 1.0 6.0 0.00 0.00 0.00 50 1015.3
20260831130140 86 42 2.0 6.0 0.00 0.00 0.00 55 1015.4
20260831125128 86 25 2.0 6.0 0.00 0.00 0.00 54 1015.5
20260831124134 86 59 1.0 4.0 0.00 0.00 0.00 56 1015.5
20260831123125 85 103 1.0 6.0 0.00 0.00 0.00 48 1015.5
20260831122131 85 72 1.0 7.0 0.00 0.00 0.00 51 1015.6
20260831121137 86 238 2.0 4.0 0.00 0.00 0.00 47 1015.6
20260831120125 86 153 2.0 4.0 0.00 0.00 0.00 49 1015.6
20260831115136 86 135 0.0 4.0 0.00 0.00 0.00 50 1015.7
20260831114124 85 73 1.0 4.0 0.00 0.00 0.00 53 1015.9
20260831113131 85 236 2.0 4.0 0.00 0.00 0.00 51 1015.9
20260831112138 84 134 1.0 6.0 0.00 0.00 0.00 54 1016.0
20260831111126 84 22 2.0 5.0 0.00 0.00 0.00 57 1016.2
20260831110133 83 339 2.0 7.0 0.00 0.00 0.00 52 1016.2
20260831105141 84 192 1.0 4.0 0.00 0.00 0.00 54 1016.2
20260831104126 85 131 2.0 8.0 0.00 0.00 0.00 53 1016.2
20260831103136 85 92 2.0 8.0 0.00 0.00 0.00 53 1016.1
20260831102142 84 111 1.0 6.0 0.00 0.00 0.00 56 1016.2
20260831101150 84 197 1.0 7.0 0.00 0.00 0.00 55 1016.2
20260831100155 83 149 1.0 4.0 0.00 0.00 0.00 55 1016.3
20260831095124 82 121 1.0 5.0 0.00 0.00 0.00 57 1016.4
20260831094153 82 33 2.0 8.0 0.00 0.00 0.00 61 1016.5
20260831093138 82 27 2.0 4.0 0.00 0.00 0.00 58 1016.5
20260831092124 82 140 1.0 3.0 0.00 0.00 0.00 63 1016.5
20260831091131 81 37 0.0 5.0 0.00 0.00 0.00 60 1016.6
20260831090141 80 35 1.0 3.0 0.00 0.00 0.00 61 1016.7
20260831085129 80 35 2.0 3.0 0.00 0.00 0.00 62 1016.6
20260831084135 80 34 1.0 4.0 0.00 0.00 0.00 63 1016.6
20260831083126 79 69 0.0 3.0 0.00 0.00 0.00 63 1016.5
20260831082132 78 24 0.0 2.0 0.00 0.00 0.00 66 1016.5
20260831081159 78 24 1.0 2.0 0.00 0.00 0.00 65 1016.4
20260831080123 77 24 2.0 4.0 0.00 0.00 0.00 68 1016.4
20260831075151 77 26 1.0 4.0 0.00 0.00 0.00 67 1016.5
20260831074140 76 26 1.0 4.0 0.00 0.00 0.00 68 1016.4
20260831073147 75 355 2.0 8.0 0.00 0.00 0.00 71 1016.3
20260831072133 75 344 1.0 6.0 0.00 0.00 0.00 70 1016.3
20260831071142 74 355 2.0 3.0 0.00 0.00 0.00 72 1016.3
20260831070132 73 44 1.0 3.0 0.00 0.00 0.00 76 1016.4
20260831065141 73 44 1.0 4.0 0.00 0.00 0.00 75 1016.3
20260831064148 72 49 0.0 3.0 0.00 0.00 0.00 73 1016.3
20260831063134 72 50 1.0 4.0 0.00 0.00 0.00 76 1016.3
20260831062124 72 37 2.0 4.0 0.00 0.00 0.00 77 1016.3
20260831061133 71 33 0.0 3.0 0.00 0.00 0.00 76 1016.2
20260831060139 71 13 0.0 1.0 0.00 0.00 0.00 79 1016.3
20260831055127 71 13 0.0 2.0 0.00 0.00 0.00 77 1016.3
20260831054137 70 174 1.0 3.0 0.00 0.00 0.00 77 1016.3